Location: ActonStarParty
(42.4766°N, 71.4538°W)
Time: 23:35:03
(UTC-04:00)

ISS - Visible Passes

Search period start: 25 May 2015 00:00
Search period end: 04 June 2015 00:00
Orbit: 399 x 404 km, 51.6° (Epoch: 25 May)

Date Brightness Start Highest point End Pass type
(mag) Time Alt. Az. Time Alt. Az. Time Alt. Az.
25 May -0.5 01:05:03 15° NE 01:05:03 15° NE 01:05:40 10° NE visible
25 May -0.9 02:37:37 15° NW 02:39:13 21° NNW 02:41:47 10° NE visible
25 May -0.5 04:14:16 10° NW 04:16:30 17° N 04:18:45 10° NE visible
26 May -1.3 01:45:57 27° NNW 01:45:57 27° NNW 01:48:40 10° NE visible
26 May -0.4 03:20:51 10° NW 03:23:00 16° N 03:25:10 10° NE visible
27 May -0.8 00:54:12 21° NNE 00:54:12 21° NNE 00:55:32 10° NE visible
27 May -0.5 02:27:15 10° NW 02:29:30 17° N 02:31:45 10° NE visible
27 May -0.6 04:04:15 10° NW 04:06:47 20° NNE 04:09:19 10° ENE visible
28 May -0.3 00:02:20 10° NE 00:02:20 10° NE 00:02:23 10° NE visible
28 May -0.7 01:34:51 17° NW 01:36:01 20° NNW 01:38:29 10° NE visible
28 May -0.3 03:11:01 10° NW 03:13:17 17° N 03:15:34 10° NE visible
29 May -1.0 00:42:44 25° NNW 00:42:44 25° NNW 00:45:19 10° NE visible
29 May -0.2 02:17:36 10° NW 02:19:45 16° N 02:21:55 10° NE visible
29 May -1.1 03:54:03 10° NW 03:56:56 28° NNE 03:59:50 10° E visible
29 May -1.4 23:50:02 29° NNE 23:50:02 29° NNE 23:52:10 10° NE visible
30 May -0.3 01:24:00 10° NW 01:26:13 17° N 01:28:25 10° NE visible
30 May -0.6 03:00:53 10° NW 03:03:28 21° NNE 03:06:05 10° ENE visible
30 May -3.3 04:36:59 10° NW 04:40:16 85° NE 04:43:32 10° ESE visible
30 May -1.8 21:17:26 10° S 21:19:36 17° SE 21:21:52 10° E visible
30 May -2.8 22:52:33 10° WSW 22:55:45 58° NNW 22:58:59 10° NE visible
31 May -0.5 00:30:15 10° WNW 00:32:41 19° N 00:35:05 10° NE visible
31 May -0.3 02:07:38 10° NW 02:09:57 18° N 02:12:17 10° NE visible
31 May -2.2 03:43:46 10° NW 03:46:56 47° NNE 03:50:07 10° ESE visible
31 May -3.5 21:59:13 10° SW 22:02:28 76° SE 22:05:43 10° ENE visible
31 May -0.8 23:36:27 10° WNW 23:39:09 23° NNW 23:41:51 10° NE visible
01 Jun -0.2 01:14:13 10° NW 01:16:23 16° N 01:18:33 10° NE visible
01 Jun -1.3 02:50:35 10° NW 02:53:32 31° NNE 02:56:29 10° E visible
01 Jun -3.0 04:26:54 10° WNW 04:30:02 42° SW 04:33:07 10° SSE visible
01 Jun -2.9 21:06:12 10° SSW 21:09:13 38° SE 21:12:16 10° ENE visible
01 Jun -1.4 22:42:42 10° W 22:45:40 32° NNW 22:48:40 10° NE visible
02 Jun -0.2 00:20:37 10° NW 00:22:48 16° N 00:24:58 10° NE visible
02 Jun -0.7 01:57:23 10° NW 02:00:02 22° NNE 02:02:43 10° ENE visible
02 Jun -3.5 03:33:30 10° WNW 03:36:46 83° SW 03:40:02 10° SE visible
02 Jun -2.4 21:49:05 10° WSW 21:52:15 51° NNW 21:55:26 10° NE visible
02 Jun -0.3 23:26:51 10° NW 23:29:13 18° N 23:31:34 10° NE visible
03 Jun -0.4 01:04:07 10° NW 01:06:29 18° N 01:08:53 10° ENE visible
03 Jun -2.6 02:40:13 10° NW 02:43:26 54° NNE 02:46:38 10° ESE visible
03 Jun -1.9 04:17:12 10° W 04:19:37 19° SW 04:21:58 10° S visible
03 Jun -3.4 20:55:39 10° SW 20:58:53 88° SSE 21:02:09 10° ENE visible
03 Jun -0.6 22:33:01 10° WNW 22:35:39 22° NNW 22:38:16 10° NE visible
